Thunder Bay, Ontario

7:32 AM EST on November 18, 2017 (GMT -0500)
Thunder Bay

Weather History for CYQT - November, 2013

Change the Weather History Date:

Sunday, November 24, 2013

  Actual Average Record
Temperature  
Mean Temperature 12 °F -  
Max Temperature 30 °F -16 °F 55 °F (2011)
Min Temperature -3 °F -29 °F -9 °F (1997)
Degree Days  
Heating Degree Days 52    
Moisture  
Dew Point 7 °F    
Average Humidity 78    
Maximum Humidity 93    
Minimum Humidity 63    
Precipitation  
Precipitation 0.00 in 0.01 in - ()
Sea Level Pressure  
Sea Level Pressure 30.31 in    
Wind  
Wind Speed 5 mph ()    
Max Wind Speed 16 mph    
Max Gust Speed 24 mph    
Visibility 11.6 miles    
Events Snow    
Averages and records for this station are not official NWS values.
T = Trace of Precipitation, MM = Missing Value Source: Averaged Metar Reports

Daily Weather History Graph

Daily Weather History Graph

Search for Another Location

Airport or City:

Trip Planner

Search our weather history database for the weather conditions in past years. The results will help you decide how hot, cold, wet, or windy it might be!

Date:

Astronomy

Nov. 24, 2013 Rise Set
Actual Time 8:18 AM EST 5:09 PM EST
Civil Twilight 7:43 AM EST 5:44 PM EST
Nautical Twilight 7:04 AM EST 6:23 PM EST
Astronomical Twilight 6:27 AM EST 7:00 PM EST
Moon 11:51 PM EST (11/24) 12:52 PM EST (11/24)
Length of Visible Light 10h 01m
Length of Day
8h 50m
Waning Gibbous, 61% of the Moon is Illuminated
Nov 24
Waning Gibbous
Nov 25
Last Quarter
Dec 2
New
Dec 9
First Quarter
Dec 17
Full

Hourly Weather History & Observations

Time (EST) Temp. Windchill Dew Point Humidity Pressure Visibility Wind Dir Wind Speed Gust Speed Precip Events Conditions
12:00 AM -0.4 °F -10.4 °F -5.8 °F 78% 30.70 in 15.0 mi West 4.6 mph - N/A   Clear
1:00 AM -0 °F - -6 °F 66% 30.70 in 10 mi West 4.6 mph - -  
1:00 AM -0.4 °F -10.4 °F -5.8 °F 78% 30.70 in 15.0 mi West 4.6 mph - N/A   Clear
2:00 AM -0.4 °F - -5.8 °F 78% 30.68 in 15.0 mi WSW 2.3 mph - N/A   Clear
3:00 AM -0.4 °F -8.3 °F -5.8 °F 78% 30.68 in 15.0 mi WSW 3.5 mph - N/A   Clear
4:00 AM -2.2 °F - -5.8 °F 85% 30.66 in 15.0 mi West 2.3 mph - N/A   Clear
5:00 AM -2.2 °F -10.4 °F -5.8 °F 85% 30.65 in 15.0 mi WNW 3.5 mph - N/A   Partly Cloudy
6:00 AM -2.2 °F -10.4 °F -5.8 °F 85% 30.63 in 20.0 mi WNW 3.5 mph - N/A   Mostly Cloudy
7:00 AM -0 °F - -3 °F 78% 30.61 in 10 mi NW 3.5 mph - -  
7:00 AM -0.4 °F -8.3 °F -4.0 °F 85% 30.61 in 15.0 mi NNW 3.5 mph - N/A   Mostly Cloudy
8:00 AM 1.4 °F - -2.2 °F 85% 30.59 in 15.0 mi WNW 2.3 mph - N/A   Scattered Clouds
9:00 AM 3.2 °F - -0.4 °F 85% 30.56 in 15.0 mi North 2.3 mph - N/A   Mostly Cloudy
10:00 AM 5.0 °F - -0.4 °F 78% 30.52 in 20.0 mi ENE 2.3 mph - N/A   Mostly Cloudy
11:00 AM 8.6 °F 2.0 °F 3.2 °F 79% 30.47 in 20.0 mi NNE 3.5 mph - N/A   Overcast
12:00 PM 10.4 °F 4.0 °F 3.2 °F 73% 30.41 in 15.0 mi NNE 3.5 mph - N/A Snow Light Snow
12:20 PM 10.4 °F - 5.0 °F 79% 30.39 in 1.2 mi NNE 2.3 mph - N/A Snow Light Snow
1:00 PM 13 °F - 9 °F 77% 30.34 in 1 mi North 2.3 mph - - Snow Light Snow
1:00 PM 12.2 °F - 8.6 °F 85% 30.34 in 1.0 mi NNE 2.3 mph - N/A Snow Light Snow
1:49 PM 14.0 °F 5.1 °F 12.2 °F 93% 30.27 in 1.0 mi ENE 5.8 mph - N/A Snow Light Snow
2:00 PM 15.8 °F 7.2 °F 14.0 °F 93% 30.26 in 1.0 mi ESE 5.8 mph - N/A Snow Light Snow
2:30 PM 17.6 °F 5.0 °F 14.0 °F 86% 30.23 in 2.5 mi South 11.5 mph - N/A Snow Light Snow
2:43 PM 19.4 °F 8.6 °F 14.0 °F 80% 30.22 in 1.5 mi SSW 9.2 mph - N/A Snow Light Snow
3:00 PM 19.4 °F 9.5 °F 15.8 °F 86% 30.19 in 0.6 mi South 8.1 mph - N/A Snow Light Snow
3:10 PM 19.4 °F 10.4 °F 15.8 °F 86% 30.18 in 0.6 mi South 6.9 mph - N/A Snow Light Snow
3:20 PM 19.4 °F 11.5 °F 17.6 °F 93% 30.16 in 3.0 mi SE 5.8 mph - N/A Snow Light Snow
4:00 PM 21.2 °F 7.8 °F 14.0 °F 74% 30.10 in 20.0 mi South 15.0 mph 21.9 mph N/A Snow Light Snow
5:00 PM 23.0 °F 10.1 °F 14.0 °F 68% 30.06 in 20.0 mi South 15.0 mph 24.2 mph N/A   Overcast
5:41 PM 23.0 °F 9.6 °F 15.8 °F 74% 30.04 in 15.0 mi South 16.1 mph - N/A Snow Light Snow
6:00 PM 23.0 °F 11.7 °F 15.8 °F 74% 30.02 in 15.0 mi South 11.5 mph - N/A Snow Light Snow
6:42 PM 24.8 °F 16.1 °F 17.6 °F 74% 29.99 in 15.0 mi SW 8.1 mph - N/A   Overcast
7:00 PM 25 °F - 17 °F 63% 29.97 in 10 mi SW 10.4 mph - -   Overcast
7:00 PM 24.8 °F 14.6 °F 17.6 °F 74% 29.97 in 15.0 mi SW 10.4 mph - N/A   Overcast
8:00 PM 24.8 °F 14.6 °F 15.8 °F 69% 29.95 in 15.0 mi SW 10.4 mph - N/A Snow Light Snow
8:19 PM 26.6 °F 19.1 °F 17.6 °F 69% 29.94 in 15.0 mi SW 6.9 mph - N/A   Overcast
9:00 PM 26.6 °F 21.2 °F 17.6 °F 69% 29.90 in 15.0 mi SSW 4.6 mph - N/A   Overcast
10:00 PM 28.4 °F 19.7 °F 19.4 °F 69% 29.85 in 15.0 mi SW 9.2 mph - N/A   Overcast
11:00 PM 30.2 °F 21.3 °F 19.4 °F 64% 29.81 in 15.0 mi SW 10.4 mph 18.4 mph N/A   Overcast